{"data":{"norad_id":47749,"epoch":"2026-08-10T06:38:50.555328Z","epoch_age_seconds":3579682,"freshness":"OLD","line1":"1 47749U 21017AD  26222.27697402  .10082643  12464-4  27093-3 0  9992","line2":"2 47749  53.1286 157.2962 0006600 250.9199 109.1136 16.45257387302090","mean_motion":16.45257387,"eccentricity":0.00066,"inclination_deg":53.1286,"raan_deg":157.2962,"arg_perigee_deg":250.9199,"mean_anomaly_deg":109.1136,"bstar":0.00027093,"rev_number":30209,"period_min":87.524299321076,"perigee_km":147.54459180959,"apogee_km":156.16418043927,"semimajor_km":6529.9913861244,"source":"CELESTRAK","updated_at":"2026-08-10T09:00:59.221973Z"}}